STARLINK-5100, 55495

Orbit data source: Space-Track

STARLINK-5100, 55495 is a payload satellite owned by SpaceX/Seattle (US) in LEO that was launched on Thu, 02 Feb 2023 UTC via an FALCON 9 launch vehicle from the Air Force Eastern Test Range (AFETR). Payload-class satellites include a variety of spacecraft equipped with specific instruments for various scientific and technological missions. These include communications satellites like Starlink; space stations such as the ISS; scientific satellites like the Hubble; Earth observation satellites from companies like Planet Labs, Umbra, and HawkEye 360; GPS; miniature CubeSats for education and research; and military/defense satellites.

Loading next visibility...
Identifier
55495, 2023-015AY
Orbit
LEO
Country
Flag of USUS
Related business
Manufacturer
SpaceX/Seattle
Mission
Operational Commercial Communications
Bus & Motor
STARLINK, Unknown motor
Mass
305 kg wet, ~290 kg dry
Launch date (UTC)
2023-02-02 (3 years ago)
Launch vehicle
FALCON 9
Launch site
Air Force Eastern Test Range (AFETR)
Object type
Payload
Rocket body
Debris
Shape & HBR
Box + 1 Pan, 10.1 m
Radar Cross Section
13.562 m², Large (>1 m²)

Expand to show TLE details & history
Last TLE update: 17 hours ago

TLE from 17 hours ago
0 STARLINK-5100
1 55495U 23015AY  26035.28506458  .00000009  00000-0  15771-4 0  9997
2 55495  43.0044 134.9584 0001406 263.7463  96.3219 15.02533824165871
Epoch: 2026-02-04T06:50Z
TLE epoch observation values (Epoch: 2026-02-04T06:50:29.579Z)
Latitude
-0.00004°
Longitude
-102.11874°
Altitude
558.972 km
Speed
7.584 km/s
True Right ascension
08h 59m 50s
True Declination
0° 00' 00"
Sunlit
Object was in full shadow at epoch
Visualization orbit readout
Latitude
Unknown
Longitude
Unknown
Altitude
Unknown
Speed
Unknown
Apparent Right ascension
Unknown
Apparent Declination
Unknown
Sunlit
N/A
Visualization observer readout
Local Sidereal Time
01:39:34
Azimuth
Unknown
Elevation
Unknown
Doppler factor
Unknown
Orbital elements
Apogee altitude
561.985 km
Perigee altitude
560.034 km
Semi-major axis
6,939.146 km
Eccentricity
0.00014
Inclination
43.0044°
RAAN
134.9584°
Arg. of periapsis
263.7463°
True anomaly
96.33791°
Mean anomaly
96.3219°
Eccentric anomaly
96.32991°
Mean motion
3.75478 °/min
Orbital period
95.88 mins
BSTAR
0.000015771
Loading maneuver chart data...
Computing Atmospheric mass density...
Loading historical data...
Loading historical data...
Loading historical data...
Loading historical data...
Loading historical data...
Loading historical data...
Loading historical data...

Documentation

Showing up to 5 results
|